Location: Little Buffalo State Park
(40.4572°N, 77.1689°W)
Time: 09:48:52
(UTC-04:00)

ISS - Visible Passes

Search period start: 19 October 2019 00:00
Search period end: 29 October 2019 00:00
Orbit: 411 x 421 km, 51.6° (Epoch: 19 October)

Date Brightness Start Highest point End Pass type
(mag) Time Alt. Az. Time Alt. Az. Time Alt. Az.
23 Oct -0.8 06:12:53 10° S 06:14:59 16° SE 06:17:04 10° E visible
24 Oct -3.6 06:59:26 10° SW 07:02:47 81° SE 07:06:09 10° NE visible
25 Oct -2.7 06:11:26 13° SSW 06:14:16 44° SE 06:17:28 10° ENE visible
26 Oct -1.8 05:25:39 24° SE 05:25:45 25° SE 05:28:34 10° ENE visible
26 Oct -3.1 06:59:11 10° W 07:02:22 39° NNW 07:05:34 10° NE visible
27 Oct -3.8 06:12:34 37° WSW 06:13:41 64° NW 06:17:03 10° NE visible
28 Oct -2.1 05:26:23 34° ENE 05:26:23 34° ENE 05:28:26 10° ENE visible
28 Oct -2.1 06:59:27 10° WNW 07:02:06 21° NNW 07:04:45 10° NNE visible
